7 * 24
多渠道服务支持
STARLINK-35661是美国太空探索技术公司(SpaceX)星链互联网卫星集群中的一颗卫星,于2025年11月8日发射入轨,属于Starlink Group卫星星座组网计划的一部分,主要为全球范围内提供高速低延迟的互联网接入服务,星链项目持续推进,该卫星进一步补充完善了星链低轨卫星星座的全球覆盖能力。
美国
(US)
| 数据来源 | 国际轨道数据 | AOE轨道数据 |
| 星历时间 | 2026-09-05T07:36:57+0800 9小时前 查看轨道信息 | 2026-08-31T18:00:00+0800 4天前 查看轨道信息 |
| 半长轴 | 6840.83km | 6840.796km |
| 偏心率 | 0.0001043 | 0.0001468 |
| 轨道倾角 | 53.159° | 53.156° |
| 近地点辐角 | 97.907° | 81.429° |
| 升交点赤经 | 100.010° | 121.362° |
| 平近点角 | 262.205° | 235.567° |
| 近地点 | 461.979km | 461.654km |
| 远地点 | 463.407km | 463.664km |
| 周期 | 93.848分钟 | 93.847分钟 |
| 每日圈数 | 15.344037 | 15.34415 |
| 事件ID | 空间交会对象 | 最接近时刻(TCA) | 交会距离 | 交会风险概率(CRP) | 交会风险指数(CRI) | 操作 |
|---|---|---|---|---|---|---|
| CDM_260907-093206-638706-950821 |
STARLINK-35661
(66387)
STARLINK-37536
(69508) | 2026-09-07T 09:32:05+0000 |
0.951 km
远距离 | 2.782563E-5 中风险 | 0.64 | |
| CDM_260907-075806-638706-950821 |
STARLINK-35661
(66387)
STARLINK-37536
(69508) | 2026-09-07T 07:58:18+0000 |
1.928 km
极远距离 | 2.75424E-6 低风险 | 0.44 | |
| CDM_260907-195805-314306-638721 |
STARLINK-4102
(53143)
STARLINK-35661
(66387) | 2026-09-07T 19:58:59+0000 |
1.534 km
极远距离 | 1.678548E-6 低风险 | 0.39 | |
| CDM_260905-102405-390006-638721 |
STARLINK-5045
(53900)
STARLINK-35661
(66387) | 2026-09-05T 10:24:39+0000 |
2.579 km
极远距离 | 1.420855E-6 低风险 | 0.38 | |
| CDM_260907-191205-314306-638721 |
STARLINK-4102
(53143)
STARLINK-35661
(66387) | 2026-09-07T 19:12:06+0000 |
1.650 km
极远距离 | 1.36888E-6 低风险 | 0.38 | |
| CDM_260903-082705-420006-638721 |
STARLINK-5250
(54200)
STARLINK-35661
(66387) | 2026-09-03T 08:27:50+0000 |
2.775 km
极远距离 | 1.316898E-6 低风险 | 0.37 | |
| CDM_260907-110506-638706-950821 |
STARLINK-35661
(66387)
STARLINK-37536
(69508) | 2026-09-07T 11:05:52+0000 |
2.901 km
极远距离 | 1.237895E-6 低风险 | 0.37 |